TimeMST,TemperatureF,Dew PointF,Humidity,Sea Level PressureIn,VisibilityMPH,Wind Direction,Wind SpeedMPH,Gust SpeedMPH,PrecipitationIn,Events,Conditions,WindDirDegrees,DateUTC
12:15 AM,87.8,55.4,33,29.89,10.0,Calm,Calm,-,N/A,,Clear,0,2013-09-05 07:15:00
12:35 AM,84.2,57.2,40,29.89,10.0,Calm,Calm,-,N/A,,Clear,0,2013-09-05 07:35:00
12:55 AM,84.2,57.2,40,29.89,10.0,Calm,Calm,-,N/A,,Clear,0,2013-09-05 07:55:00
1:15 AM,84.2,57.2,40,29.89,10.0,Calm,Calm,-,N/A,,Clear,0,2013-09-05 08:15:00
1:35 AM,84.2,57.2,40,29.89,10.0,Calm,Calm,-,N/A,,Clear,0,2013-09-05 08:35:00
1:55 AM,84.2,57.2,40,29.88,10.0,NE,3.5,-,N/A,,Clear,50,2013-09-05 08:55:00
2:15 AM,82.4,57.2,42,29.88,10.0,Calm,Calm,-,N/A,,Clear,0,2013-09-05 09:15:00
2:35 AM,82.4,57.2,42,29.88,10.0,Calm,Calm,-,N/A,,Clear,0,2013-09-05 09:35:00
2:55 AM,82.4,57.2,42,29.88,10.0,East,5.8,-,N/A,,Clear,100,2013-09-05 09:55:00
3:15 AM,84.2,57.2,40,29.88,10.0,East,3.5,-,N/A,,Clear,90,2013-09-05 10:15:00
3:35 AM,82.4,57.2,42,29.87,10.0,Calm,Calm,-,N/A,,Clear,0,2013-09-05 10:35:00
3:55 AM,80.6,57.2,45,29.88,10.0,NE,5.8,-,N/A,,Clear,50,2013-09-05 10:55:00
4:15 AM,80.6,57.2,45,29.87,10.0,ENE,4.6,-,N/A,,Clear,70,2013-09-05 11:15:00
4:35 AM,80.6,57.2,45,29.88,10.0,Calm,Calm,-,N/A,,Clear,0,2013-09-05 11:35:00
4:55 AM,82.4,57.2,42,29.88,10.0,ENE,4.6,-,N/A,,Clear,60,2013-09-05 11:55:00
5:15 AM,80.6,55.4,42,29.89,10.0,Calm,Calm,-,N/A,,Clear,0,2013-09-05 12:15:00
5:35 AM,80.6,55.4,42,29.89,10.0,Calm,Calm,-,N/A,,Clear,0,2013-09-05 12:35:00
5:55 AM,78.8,55.4,44,29.89,10.0,Calm,Calm,-,N/A,,Clear,0,2013-09-05 12:55:00
6:15 AM,78.8,53.6,42,29.90,10.0,ENE,3.5,-,N/A,,Clear,60,2013-09-05 13:15:00
6:35 AM,78.8,53.6,42,29.91,10.0,NE,4.6,-,N/A,,Clear,50,2013-09-05 13:35:00
6:55 AM,82.4,53.6,37,29.91,10.0,East,5.8,-,N/A,,Clear,90,2013-09-05 13:55:00
7:15 AM,84.2,53.6,35,29.92,10.0,ESE,4.6,-,N/A,,Clear,120,2013-09-05 14:15:00
7:35 AM,84.2,53.6,35,29.93,10.0,East,5.8,-,N/A,,Clear,100,2013-09-05 14:35:00
7:55 AM,86.0,53.6,33,29.93,10.0,ESE,8.1,-,N/A,,Clear,120,2013-09-05 14:55:00
8:15 AM,87.8,53.6,31,29.93,10.0,SE,5.8,-,N/A,,Clear,130,2013-09-05 15:15:00
8:35 AM,87.8,53.6,31,29.94,10.0,SE,5.8,-,N/A,,Clear,130,2013-09-05 15:35:00
8:55 AM,89.6,53.6,29,29.94,10.0,SSE,5.8,-,N/A,,Clear,150,2013-09-05 15:55:00
9:15 AM,91.4,51.8,26,29.94,10.0,ESE,6.9,-,N/A,,Clear,120,2013-09-05 16:15:00
9:35 AM,95.0,53.6,25,29.94,10.0,ESE,8.1,-,N/A,,Clear,110,2013-09-05 16:35:00
9:55 AM,96.8,53.6,23,29.94,10.0,East,6.9,-,N/A,,Clear,100,2013-09-05 16:55:00
10:15 AM,98.6,53.6,22,29.94,10.0,ESE,9.2,-,N/A,,Clear,120,2013-09-05 17:15:00
10:35 AM,98.6,51.8,21,29.93,10.0,ESE,8.1,-,N/A,,Clear,110,2013-09-05 17:35:00
10:55 AM,100.4,51.8,20,29.93,10.0,East,6.9,-,N/A,,Clear,90,2013-09-05 17:55:00
11:15 AM,102.2,51.8,18,29.92,10.0,SE,8.1,-,N/A,,Clear,140,2013-09-05 18:15:00
11:35 AM,102.2,50.0,17,29.92,10.0,Calm,Calm,-,N/A,,Clear,0,2013-09-05 18:35:00
11:55 AM,104.0,51.8,17,29.91,10.0,ESE,11.5,-,N/A,,Clear,110,2013-09-05 18:55:00
12:15 PM,104.0,51.8,17,29.91,10.0,ESE,9.2,17.3,N/A,,Clear,110,2013-09-05 19:15:00
12:35 PM,105.8,51.8,17,29.90,10.0,SE,11.5,16.1,N/A,,Clear,130,2013-09-05 19:35:00
12:55 PM,105.8,50.0,15,29.89,10.0,SSE,11.5,16.1,N/A,,Clear,150,2013-09-05 19:55:00
1:15 PM,105.8,48.2,14,29.89,10.0,East,12.7,18.4,N/A,,Clear,90,2013-09-05 20:15:00
1:35 PM,105.8,46.4,14,29.88,10.0,East,12.7,17.3,N/A,,Clear,100,2013-09-05 20:35:00
1:55 PM,105.8,48.2,14,29.87,10.0,East,9.2,-,N/A,,Clear,100,2013-09-05 20:55:00
2:15 PM,105.8,48.2,14,29.86,10.0,SE,11.5,19.6,N/A,,Clear,130,2013-09-05 21:15:00
2:35 PM,105.8,48.2,14,29.85,10.0,ENE,11.5,-,N/A,,Clear,70,2013-09-05 21:35:00
2:55 PM,105.8,48.2,14,29.85,10.0,ENE,9.2,-,N/A,,Clear,70,2013-09-05 21:55:00
3:15 PM,105.8,46.4,14,29.84,10.0,East,12.7,18.4,N/A,,Clear,90,2013-09-05 22:15:00
3:35 PM,105.8,46.4,14,29.83,10.0,East,8.1,-,N/A,,Clear,80,2013-09-05 22:35:00
3:55 PM,105.8,48.2,14,29.83,10.0,SSE,8.1,-,N/A,,Clear,160,2013-09-05 22:55:00
4:15 PM,105.8,48.2,14,29.82,10.0,SE,5.8,-,N/A,,Clear,140,2013-09-05 23:15:00
4:35 PM,105.8,48.2,14,29.82,10.0,Calm,Calm,-,N/A,,Clear,0,2013-09-05 23:35:00
4:55 PM,105.8,46.4,14,29.81,10.0,East,6.9,-,N/A,,Clear,90,2013-09-05 23:55:00
5:15 PM,105.8,46.4,14,29.81,10.0,East,8.1,-,N/A,,Clear,100,2013-09-06 00:15:00
5:35 PM,105.8,46.4,14,29.81,10.0,East,8.1,-,N/A,,Clear,90,2013-09-06 00:35:00
5:55 PM,105.8,46.4,14,29.81,10.0,East,6.9,-,N/A,,Clear,100,2013-09-06 00:55:00
6:15 PM,105.8,46.4,14,29.81,10.0,East,12.7,-,N/A,,Clear,80,2013-09-06 01:15:00
6:35 PM,104.0,46.4,14,29.81,10.0,East,10.4,-,N/A,,Clear,80,2013-09-06 01:35:00
6:55 PM,102.2,46.4,15,29.82,10.0,East,6.9,-,N/A,,Clear,80,2013-09-06 01:55:00
7:15 PM,102.2,46.4,15,29.82,10.0,ENE,5.8,-,N/A,,Clear,70,2013-09-06 02:15:00
7:35 PM,100.4,48.2,17,29.83,10.0,ENE,3.5,-,N/A,,Clear,70,2013-09-06 02:35:00
7:55 PM,98.6,48.2,18,29.84,10.0,ENE,3.5,-,N/A,,Clear,70,2013-09-06 02:55:00
8:15 PM,96.8,53.6,23,29.86,7.0,South,35.7,42.6,N/A,,Mostly Cloudy,180,2013-09-06 03:15:00
8:35 PM,98.6,51.8,21,29.88,10.0,SSW,20.7,28.8,N/A,,Scattered Clouds,210,2013-09-06 03:35:00
8:55 PM,98.6,50.0,19,29.87,10.0,SW,9.2,24.2,N/A,,Clear,230,2013-09-06 03:55:00
9:15 PM,98.6,50.0,19,29.87,10.0,SSW,8.1,-,N/A,,Clear,200,2013-09-06 04:15:00
9:35 PM,96.8,51.8,22,29.88,10.0,SW,9.2,-,N/A,,Clear,220,2013-09-06 04:35:00
9:55 PM,95.0,53.6,25,29.88,10.0,SSW,6.9,-,N/A,,Clear,200,2013-09-06 04:55:00
10:15 PM,93.2,53.6,26,29.88,10.0,SW,6.9,-,N/A,,Clear,220,2013-09-06 05:15:00
10:35 PM,93.2,55.4,28,29.89,10.0,Calm,Calm,-,N/A,,Clear,0,2013-09-06 05:35:00
10:55 PM,91.4,55.4,29,29.88,10.0,Calm,Calm,-,N/A,,Clear,0,2013-09-06 05:55:00
11:15 PM,91.4,55.4,29,29.89,10.0,Calm,Calm,-,N/A,,Clear,0,2013-09-06 06:15:00
11:35 PM,89.6,55.4,31,29.89,10.0,Calm,Calm,-,N/A,,Clear,0,2013-09-06 06:35:00
11:55 PM,87.8,53.6,31,29.89,10.0,Calm,Calm,-,N/A,,Clear,0,2013-09-06 06:55:00